Time,TemperatureF,DewpointF,PressureIn,WindDirection,WindDirectionDegrees,WindSpeedMPH,WindSpeedGustMPH,Humidity,HourlyPrecipIn,Conditions,Clouds,dailyrainin,SoftwareType,DateUTC
2013-07-03 00:01:00,58.1,51.3,30.12,South,180,0.0,0.0,78,0.00,,---,0.00,VWS V14.01,2013-07-03 07:01:00,
2013-07-03 00:06:00,57.7,50.9,30.12,South,180,0.0,0.0,78,0.00,,---,0.00,VWS V14.01,2013-07-03 07:06:00,
2013-07-03 00:11:00,57.6,51.1,30.12,South,180,0.0,0.0,79,0.00,,---,0.00,VWS V14.01,2013-07-03 07:11:00,
2013-07-03 00:16:00,57.4,50.9,30.12,South,180,0.0,0.0,79,0.00,,---,0.00,VWS V14.01,2013-07-03 07:16:00,
2013-07-03 00:21:00,57.4,51.3,30.12,South,180,0.0,0.0,80,0.00,,---,0.00,VWS V14.01,2013-07-03 07:21:00,
2013-07-03 00:26:00,57.0,51.3,30.12,South,180,0.0,0.0,81,0.00,,---,0.00,VWS V14.01,2013-07-03 07:26:00,
2013-07-03 00:31:00,56.8,51.1,30.12,South,180,0.0,0.0,81,0.00,,---,0.00,VWS V14.01,2013-07-03 07:31:00,
2013-07-03 00:37:00,56.7,50.9,30.12,SW,225,0.0,0.0,81,0.00,,---,0.00,VWS V14.01,2013-07-03 07:37:00,
2013-07-03 00:40:00,56.7,51.2,30.15,SW,225,0.0,0.0,82,0.00,,---,0.00,VWS V14.01,2013-07-03 07:40:00,
2013-07-03 00:45:00,56.3,50.9,30.15,SW,225,0.0,0.0,82,0.00,,---,0.00,VWS V14.01,2013-07-03 07:45:00,
2013-07-03 00:50:00,56.3,51.2,30.15,SW,225,0.0,0.0,83,0.00,,---,0.00,VWS V14.01,2013-07-03 07:50:00,
2013-07-03 00:56:00,55.9,50.9,30.15,SW,225,0.0,0.0,83,0.00,,---,0.00,VWS V14.01,2013-07-03 07:56:00,
2013-07-03 01:01:00,55.9,51.2,30.15,SW,225,0.0,0.0,84,0.00,,---,0.00,VWS V14.01,2013-07-03 08:01:00,
2013-07-03 01:02:00,55.8,51.0,30.15,SW,225,0.0,0.0,84,0.00,,---,0.00,VWS V14.01,2013-07-03 08:02:00,
2013-07-03 01:06:00,55.8,51.0,30.15,SW,225,0.0,0.0,84,0.00,,---,0.00,VWS V14.01,2013-07-03 08:06:00,
2013-07-03 01:11:00,55.6,50.8,30.15,SW,225,0.0,0.0,84,0.00,,---,0.00,VWS V14.01,2013-07-03 08:11:00,
2013-07-03 01:16:00,55.6,50.8,30.15,SW,225,0.0,0.0,84,0.00,,---,0.00,VWS V14.01,2013-07-03 08:16:00,
2013-07-03 01:18:00,55.6,50.8,30.15,SW,225,0.0,0.0,84,0.00,,---,0.00,VWS V14.01,2013-07-03 08:18:00,
2013-07-03 01:24:00,55.4,50.7,30.15,SW,225,0.0,0.0,84,0.00,,---,0.00,VWS V14.01,2013-07-03 08:24:00,
2013-07-03 01:29:00,55.4,50.7,30.15,SW,225,0.0,0.0,84,0.00,,---,0.00,VWS V14.01,2013-07-03 08:29:00,
2013-07-03 01:34:00,55.0,50.6,30.15,SW,225,0.0,0.0,85,0.00,,---,0.00,VWS V14.01,2013-07-03 08:34:00,
2013-07-03 01:39:00,54.9,50.4,30.15,SW,225,0.0,0.0,85,0.00,,---,0.00,VWS V14.01,2013-07-03 08:39:00,
2013-07-03 01:40:00,54.9,50.4,30.15,SW,225,0.0,0.0,85,0.00,,---,0.00,VWS V14.01,2013-07-03 08:40:00,
2013-07-03 01:45:00,54.7,50.3,30.15,SW,225,0.0,0.0,85,0.00,,---,0.00,VWS V14.01,2013-07-03 08:45:00,
2013-07-03 01:51:00,54.5,50.4,30.15,SW,225,0.0,0.0,86,0.00,,---,0.00,VWS V14.01,2013-07-03 08:51:00,
2013-07-03 01:54:00,54.5,50.4,30.12,SW,225,0.0,0.0,86,0.00,,---,0.00,VWS V14.01,2013-07-03 08:54:00,
2013-07-03 01:56:00,54.5,50.4,30.12,SW,225,0.0,0.0,86,0.00,,---,0.00,VWS V14.01,2013-07-03 08:56:00,
2013-07-03 02:01:00,54.3,50.2,30.12,SW,225,0.0,0.0,86,0.00,,---,0.00,VWS V14.01,2013-07-03 09:01:00,
2013-07-03 02:06:00,54.3,50.2,30.12,SW,225,0.0,0.0,86,0.00,,---,0.00,VWS V14.01,2013-07-03 09:06:00,
2013-07-03 02:11:00,54.3,50.2,30.15,SW,225,0.0,0.0,86,0.00,,---,0.00,VWS V14.01,2013-07-03 09:11:00,
2013-07-03 02:17:00,54.1,50.0,30.15,SW,225,0.0,0.0,86,0.00,,---,0.00,VWS V14.01,2013-07-03 09:17:00,
2013-07-03 02:22:00,54.0,50.2,30.15,SW,225,0.0,0.0,87,0.00,,---,0.00,VWS V14.01,2013-07-03 09:22:00,
2013-07-03 02:27:00,53.8,49.7,30.15,SW,225,0.0,0.0,86,0.00,,---,0.00,VWS V14.01,2013-07-03 09:27:00,
2013-07-03 02:32:00,53.8,49.7,30.15,SW,225,0.0,0.0,86,0.00,,---,0.00,VWS V14.01,2013-07-03 09:32:00,
2013-07-03 02:37:00,53.8,50.0,30.15,South,180,0.0,0.0,87,0.00,,---,0.00,VWS V14.01,2013-07-03 09:37:00,
2013-07-03 02:41:00,53.6,50.1,30.15,South,180,0.0,0.0,88,0.00,,---,0.00,VWS V14.01,2013-07-03 09:41:00,
2013-07-03 02:46:00,53.4,50.0,30.15,South,180,0.0,0.0,88,0.00,,---,0.00,VWS V14.01,2013-07-03 09:46:00,
2013-07-03 02:49:00,53.2,49.8,30.15,South,180,0.0,0.0,88,0.00,,---,0.00,VWS V14.01,2013-07-03 09:49:00,
2013-07-03 02:50:00,53.2,49.8,30.15,South,180,0.0,0.0,88,0.00,,---,0.00,VWS V14.01,2013-07-03 09:50:00,
2013-07-03 02:55:00,53.1,49.9,30.15,South,180,0.0,0.0,89,0.00,,---,0.00,VWS V14.01,2013-07-03 09:55:00,
2013-07-03 03:00:00,53.1,49.6,30.15,South,180,0.0,0.0,88,0.00,,---,0.00,VWS V14.01,2013-07-03 10:00:00,
2013-07-03 03:05:00,53.1,50.2,30.15,South,180,0.0,0.0,90,0.00,,---,0.00,VWS V14.01,2013-07-03 10:05:00,
2013-07-03 03:10:00,52.9,50.0,30.15,South,180,0.0,0.0,90,0.00,,---,0.00,VWS V14.01,2013-07-03 10:10:00,
2013-07-03 03:16:00,52.7,49.8,30.15,South,180,0.0,0.0,90,0.00,,---,0.00,VWS V14.01,2013-07-03 10:16:00,
2013-07-03 03:21:00,52.5,49.7,30.15,South,180,0.0,0.0,90,0.00,,---,0.00,VWS V14.01,2013-07-03 10:21:00,
2013-07-03 03:26:00,52.3,49.8,30.15,South,180,0.0,0.0,91,0.00,,---,0.00,VWS V14.01,2013-07-03 10:26:00,
2013-07-03 03:31:00,52.3,49.8,30.15,South,180,0.0,0.0,91,0.00,,---,0.00,VWS V14.01,2013-07-03 10:31:00,
2013-07-03 03:36:00,52.2,49.6,30.15,South,180,0.0,0.0,91,0.00,,---,0.00,VWS V14.01,2013-07-03 10:36:00,
2013-07-03 03:42:00,52.0,49.4,30.15,South,180,0.0,0.0,91,0.00,,---,0.00,VWS V14.01,2013-07-03 10:42:00,
2013-07-03 03:47:00,52.0,49.7,30.15,South,180,0.0,0.0,92,0.00,,---,0.00,VWS V14.01,2013-07-03 10:47:00,
2013-07-03 03:49:00,51.8,49.5,30.15,South,180,0.0,0.0,92,0.00,,---,0.00,VWS V14.01,2013-07-03 10:49:00,
2013-07-03 03:54:00,51.6,49.4,30.15,South,180,0.0,0.0,92,0.00,,---,0.00,VWS V14.01,2013-07-03 10:54:00,
2013-07-03 03:55:00,51.6,49.4,30.15,South,180,0.0,0.0,92,0.00,,---,0.00,VWS V14.01,2013-07-03 10:55:00,
2013-07-03 03:58:00,51.6,49.4,30.15,South,180,0.0,0.0,92,0.00,,---,0.00,VWS V14.01,2013-07-03 10:58:00,
2013-07-03 04:03:00,51.4,49.5,30.15,South,180,0.0,0.0,93,0.00,,---,0.00,VWS V14.01,2013-07-03 11:03:00,
2013-07-03 04:08:00,51.3,49.0,30.18,South,180,0.0,0.0,92,0.00,,---,0.00,VWS V14.01,2013-07-03 11:08:00,
2013-07-03 04:09:00,51.3,49.0,30.18,South,180,0.0,0.0,92,0.00,,---,0.00,VWS V14.01,2013-07-03 11:09:00,
2013-07-03 04:11:00,51.1,48.8,30.18,South,180,0.0,0.0,92,0.00,,---,0.00,VWS V14.01,2013-07-03 11:11:00,
2013-07-03 04:16:00,51.1,49.1,30.18,South,180,0.0,0.0,93,0.00,,---,0.00,VWS V14.01,2013-07-03 11:16:00,
2013-07-03 04:19:00,50.9,49.0,30.18,South,180,0.0,0.0,93,0.00,,---,0.00,VWS V14.01,2013-07-03 11:19:00,
2013-07-03 04:24:00,50.7,48.8,30.18,South,180,0.0,0.0,93,0.00,,---,0.00,VWS V14.01,2013-07-03 11:24:00,
2013-07-03 04:28:00,50.7,48.8,30.18,South,180,0.0,0.0,93,0.00,,---,0.00,VWS V14.01,2013-07-03 11:28:00,
2013-07-03 04:33:00,50.7,48.8,30.18,South,180,0.0,0.0,93,0.00,,---,0.00,VWS V14.01,2013-07-03 11:33:00,
2013-07-03 04:38:00,50.5,48.6,30.21,South,180,0.0,0.0,93,0.00,,---,0.00,VWS V14.01,2013-07-03 11:38:00,
2013-07-03 04:44:00,50.5,48.6,30.21,South,180,0.0,0.0,93,0.00,,---,0.00,VWS V14.01,2013-07-03 11:44:00,
2013-07-03 04:45:00,50.5,48.6,30.21,South,180,0.0,0.0,93,0.00,,---,0.00,VWS V14.01,2013-07-03 11:45:00,
2013-07-03 04:51:00,50.4,48.4,30.21,South,180,0.0,0.0,93,0.00,,---,0.00,VWS V14.01,2013-07-03 11:51:00,
2013-07-03 04:56:00,50.4,48.4,30.21,South,180,0.0,0.0,93,0.00,,---,0.00,VWS V14.01,2013-07-03 11:56:00,
2013-07-03 04:59:00,50.2,48.5,30.21,South,180,0.0,0.0,94,0.00,,---,0.00,VWS V14.01,2013-07-03 11:59:00,
2013-07-03 05:02:00,50.2,48.5,30.21,South,180,0.0,0.0,94,0.00,,---,0.00,VWS V14.01,2013-07-03 12:02:00,
2013-07-03 05:07:00,50.0,48.3,30.21,South,180,0.0,0.0,94,0.00,,---,0.00,VWS V14.01,2013-07-03 12:07:00,
2013-07-03 05:12:00,50.0,48.3,30.21,South,180,0.0,0.0,94,0.00,,---,0.00,VWS V14.01,2013-07-03 12:12:00,
2013-07-03 05:14:00,50.0,48.3,30.21,South,180,0.0,0.0,94,0.00,,---,0.00,VWS V14.01,2013-07-03 12:14:00,
2013-07-03 05:16:00,49.8,48.5,30.21,South,180,0.0,0.0,95,0.00,,---,0.00,VWS V14.01,2013-07-03 12:16:00,
2013-07-03 05:21:00,49.8,48.5,30.21,South,180,0.0,0.0,95,0.00,,---,0.00,VWS V14.01,2013-07-03 12:21:00,
2013-07-03 05:26:00,49.6,48.3,30.18,South,180,0.0,0.0,95,0.00,,---,0.00,VWS V14.01,2013-07-03 12:26:00,
2013-07-03 05:31:00,49.6,48.3,30.18,South,180,0.0,0.0,95,0.00,,---,0.00,VWS V14.01,2013-07-03 12:31:00,
2013-07-03 05:36:00,49.6,48.5,30.18,South,180,0.0,0.0,96,0.00,,---,0.00,VWS V14.01,2013-07-03 12:36:00,
2013-07-03 05:41:00,49.5,48.4,30.21,South,180,0.0,0.0,96,0.00,,---,0.00,VWS V14.01,2013-07-03 12:41:00,
2013-07-03 05:47:00,49.5,48.4,30.21,South,180,0.0,0.0,96,0.00,,---,0.00,VWS V14.01,2013-07-03 12:47:00,
2013-07-03 05:52:00,49.5,48.4,30.21,South,180,0.0,0.0,96,0.00,,---,0.00,VWS V14.01,2013-07-03 12:52:00,
2013-07-03 05:57:00,49.5,48.4,30.21,South,180,0.0,0.0,96,0.00,,---,0.00,VWS V14.01,2013-07-03 12:57:00,
2013-07-03 06:02:00,49.6,48.5,30.21,South,180,0.0,0.0,96,0.00,,---,0.00,VWS V14.01,2013-07-03 13:02:00,
2013-07-03 06:07:00,49.6,48.5,30.21,South,180,0.0,0.0,96,0.00,,---,0.00,VWS V14.01,2013-07-03 13:07:00,
2013-07-03 06:13:00,49.6,48.5,30.21,South,180,0.0,0.0,96,0.00,,---,0.00,VWS V14.01,2013-07-03 13:13:00,
2013-07-03 06:18:00,49.8,48.7,30.21,South,180,0.0,0.0,96,0.00,,---,0.00,VWS V14.01,2013-07-03 13:18:00,
2013-07-03 06:23:00,50.0,48.9,30.21,South,180,0.0,0.0,96,0.00,,---,0.00,VWS V14.01,2013-07-03 13:23:00,
2013-07-03 06:25:00,50.2,49.1,30.21,SSE,158,0.0,0.0,96,0.00,,---,0.00,VWS V14.01,2013-07-03 13:25:00,
2013-07-03 06:26:00,50.2,49.1,30.21,SSE,158,0.0,0.0,96,0.00,,---,0.00,VWS V14.01,2013-07-03 13:26:00,
2013-07-03 06:31:00,50.4,49.3,30.21,SSE,158,0.0,0.0,96,0.00,,---,0.00,VWS V14.01,2013-07-03 13:31:00,
2013-07-03 06:36:00,50.7,49.6,30.21,SSE,158,0.0,0.0,96,0.00,,---,0.00,VWS V14.01,2013-07-03 13:36:00,
2013-07-03 06:37:00,50.7,49.6,30.21,SSE,158,0.0,0.0,96,0.00,,---,0.00,VWS V14.01,2013-07-03 13:37:00,
2013-07-03 06:42:00,51.1,50.0,30.21,SSE,158,0.0,0.0,96,0.00,,---,0.00,VWS V14.01,2013-07-03 13:42:00,
2013-07-03 06:47:00,52.3,51.5,30.21,SE,135,0.0,0.0,97,0.00,,---,0.00,VWS V14.01,2013-07-03 13:47:00,
2013-07-03 06:53:00,54.5,54.0,30.21,ESE,112,0.0,0.0,98,0.00,,---,0.00,VWS V14.01,2013-07-03 13:53:00,
2013-07-03 06:58:00,56.8,56.3,30.21,SE,135,0.0,0.0,98,0.00,,---,0.00,VWS V14.01,2013-07-03 13:58:00,
2013-07-03 07:03:00,58.1,57.3,30.21,ESE,112,0.0,0.0,97,0.00,,---,0.00,VWS V14.01,2013-07-03 14:03:00,
2013-07-03 07:08:00,59.4,57.0,30.21,ENE,68,0.0,0.9,92,0.00,,---,0.00,VWS V14.01,2013-07-03 14:08:00,
2013-07-03 07:09:00,59.4,57.0,30.21,East,90,0.0,0.0,92,0.00,,---,0.00,VWS V14.01,2013-07-03 14:09:00,
2013-07-03 07:14:00,60.8,56.3,30.21,ESE,112,0.0,0.0,85,0.00,,---,0.00,VWS V14.01,2013-07-03 14:14:00,
2013-07-03 07:19:00,62.8,57.2,30.21,South,180,0.0,0.0,82,0.00,,---,0.00,VWS V14.01,2013-07-03 14:19:00,
2013-07-03 07:21:00,63.5,57.6,30.21,South,180,0.0,0.0,81,0.00,,---,0.00,VWS V14.01,2013-07-03 14:21:00,
2013-07-03 07:26:00,65.1,58.5,30.21,South,180,0.0,0.0,79,0.00,,---,0.00,VWS V14.01,2013-07-03 14:26:00,
2013-07-03 07:30:00,66.7,57.4,30.21,South,180,0.0,0.0,72,0.00,,---,0.00,VWS V14.01,2013-07-03 14:30:00,
2013-07-03 07:35:00,68.2,58.0,30.21,South,180,0.0,0.0,70,0.00,,---,0.00,VWS V14.01,2013-07-03 14:35:00,
2013-07-03 07:38:00,69.1,58.5,30.21,East,90,0.0,0.0,69,0.00,,---,0.00,VWS V14.01,2013-07-03 14:38:00,
2013-07-03 07:42:00,68.7,56.1,30.21,South,180,1.3,2.0,64,0.00,,---,0.00,VWS V14.01,2013-07-03 14:42:00,
2013-07-03 07:47:00,68.9,55.8,30.21,ENE,68,0.0,0.0,63,0.00,,---,0.00,VWS V14.01,2013-07-03 14:47:00,
2013-07-03 07:52:00,69.6,52.8,30.21,East,90,0.0,0.9,55,0.00,,---,0.00,VWS V14.01,2013-07-03 14:52:00,
2013-07-03 07:53:00,69.6,52.8,30.21,WSW,248,0.0,0.0,55,0.00,,---,0.00,VWS V14.01,2013-07-03 14:53:00,
2013-07-03 07:58:00,70.3,54.4,30.21,ESE,112,0.0,0.0,57,0.00,,---,0.00,VWS V14.01,2013-07-03 14:58:00,
2013-07-03 07:59:00,70.2,52.2,30.21,NNE,22,0.0,2.0,53,0.00,,---,0.00,VWS V14.01,2013-07-03 14:59:00,
2013-07-03 08:03:00,70.9,53.4,30.21,East,90,0.0,0.0,54,0.00,,---,0.00,VWS V14.01,2013-07-03 15:03:00,
2013-07-03 08:05:00,71.1,54.6,30.21,East,90,0.9,2.5,56,0.00,,---,0.00,VWS V14.01,2013-07-03 15:05:00,
2013-07-03 08:10:00,69.8,49.2,30.21,WSW,248,0.0,0.0,48,0.00,,---,0.00,VWS V14.01,2013-07-03 15:10:00,
2013-07-03 08:15:00,70.5,49.9,30.21,South,180,0.0,0.0,48,0.00,,---,0.00,VWS V14.01,2013-07-03 15:15:00,
2013-07-03 08:20:00,72.1,50.8,30.21,WSW,248,1.1,2.5,47,0.00,,---,0.00,VWS V14.01,2013-07-03 15:20:00,
2013-07-03 08:25:00,72.1,49.7,30.21,WSW,248,2.2,2.2,45,0.00,,---,0.00,VWS V14.01,2013-07-03 15:25:00,
2013-07-03 08:28:00,72.7,50.1,30.21,SW,225,0.0,0.0,45,0.00,,---,0.00,VWS V14.01,2013-07-03 15:28:00,
2013-07-03 08:34:00,73.9,49.4,30.21,WSW,248,2.0,2.7,42,0.00,,---,0.00,VWS V14.01,2013-07-03 15:34:00,
2013-07-03 08:39:00,73.9,50.1,30.21,East,90,1.3,4.3,43,0.00,,---,0.00,VWS V14.01,2013-07-03 15:39:00,
2013-07-03 08:40:00,74.3,49.1,30.21,SSW,202,0.0,1.3,41,0.00,,---,0.00,VWS V14.01,2013-07-03 15:40:00,
2013-07-03 08:45:00,73.9,48.8,30.21,WSW,248,2.0,2.0,41,0.00,,---,0.00,VWS V14.01,2013-07-03 15:45:00,
2013-07-03 08:50:00,74.1,48.3,30.21,SSE,158,0.0,2.7,40,0.00,,---,0.00,VWS V14.01,2013-07-03 15:50:00,
2013-07-03 08:52:00,74.7,49.4,30.21,SSW,202,0.0,0.0,41,0.00,,---,0.00,VWS V14.01,2013-07-03 15:52:00,
2013-07-03 08:53:00,74.8,48.2,30.24,SSW,202,0.0,0.0,39,0.00,,---,0.00,VWS V14.01,2013-07-03 15:53:00,
2013-07-03 08:54:00,75.7,50.4,30.24,SW,225,2.5,2.5,41,0.00,,---,0.00,VWS V14.01,2013-07-03 15:54:00,
2013-07-03 08:59:00,76.1,50.7,30.24,SW,225,1.1,1.1,41,0.00,,---,0.00,VWS V14.01,2013-07-03 15:59:00,
2013-07-03 09:04:00,76.3,48.1,30.24,WSW,248,0.9,1.6,37,0.00,,---,0.00,VWS V14.01,2013-07-03 16:04:00,
2013-07-03 09:09:00,75.7,46.2,30.21,SW,225,2.0,2.0,35,0.00,,---,0.00,VWS V14.01,2013-07-03 16:09:00,
2013-07-03 09:14:00,76.1,46.5,30.21,WSW,248,3.1,3.1,35,0.00,,---,0.00,VWS V14.01,2013-07-03 16:14:00,
2013-07-03 09:19:00,76.6,47.0,30.21,WSW,248,2.0,2.0,35,0.00,,---,0.00,VWS V14.01,2013-07-03 16:19:00,
2013-07-03 09:24:00,77.7,46.3,30.21,SW,225,1.6,2.5,33,0.00,,---,0.00,VWS V14.01,2013-07-03 16:24:00,
2013-07-03 09:29:00,78.1,47.5,30.21,SSW,202,1.1,2.5,34,0.00,,---,0.00,VWS V14.01,2013-07-03 16:29:00,
2013-07-03 09:35:00,78.6,45.5,30.21,SW,225,2.7,2.7,31,0.00,,---,0.00,VWS V14.01,2013-07-03 16:35:00,
2013-07-03 09:40:00,79.2,46.8,30.21,SW,225,1.1,1.1,32,0.00,,---,0.00,VWS V14.01,2013-07-03 16:40:00,
2013-07-03 09:45:00,80.2,49.3,30.21,South,180,0.9,2.2,34,0.00,,---,0.00,VWS V14.01,2013-07-03 16:45:00,
2013-07-03 09:50:00,80.8,48.2,30.21,South,180,0.0,1.1,32,0.00,,---,0.00,VWS V14.01,2013-07-03 16:50:00,
2013-07-03 09:55:00,81.3,48.7,30.18,SW,225,2.2,2.2,32,0.00,,---,0.00,VWS V14.01,2013-07-03 16:55:00,
2013-07-03 10:00:00,80.2,46.9,30.18,SW,225,0.0,2.9,31,0.00,,---,0.00,VWS V14.01,2013-07-03 17:00:00,
2013-07-03 10:06:00,81.7,48.1,30.18,WSW,248,0.9,2.0,31,0.00,,---,0.00,VWS V14.01,2013-07-03 17:06:00,
2013-07-03 10:11:00,82.4,47.9,30.18,SW,225,1.6,1.6,30,0.00,,---,0.00,VWS V14.01,2013-07-03 17:11:00,
2013-07-03 10:16:00,81.7,47.3,30.18,West,270,2.2,3.1,30,0.00,,---,0.00,VWS V14.01,2013-07-03 17:16:00,
2013-07-03 10:21:00,82.9,48.3,30.18,SW,225,0.0,0.0,30,0.00,,---,0.00,VWS V14.01,2013-07-03 17:21:00,
2013-07-03 10:26:00,83.5,47.9,30.18,South,180,0.0,1.6,29,0.00,,---,0.00,VWS V14.01,2013-07-03 17:26:00,
2013-07-03 10:31:00,84.2,48.5,30.18,SW,225,0.0,0.9,29,0.00,,---,0.00,VWS V14.01,2013-07-03 17:31:00,
2013-07-03 10:36:00,84.2,48.5,30.18,WSW,248,0.0,0.9,29,0.00,,---,0.00,VWS V14.01,2013-07-03 17:36:00,
2013-07-03 10:41:00,84.7,48.1,30.15,SSE,158,0.0,0.9,28,0.00,,---,0.00,VWS V14.01,2013-07-03 17:41:00,
2013-07-03 10:46:00,83.5,44.0,30.15,SSW,202,2.5,6.3,25,0.00,,---,0.00,VWS V14.01,2013-07-03 17:46:00,
2013-07-03 10:51:00,84.4,48.7,30.15,WSW,248,0.0,0.0,29,0.00,,---,0.00,VWS V14.01,2013-07-03 17:51:00,
2013-07-03 10:56:00,84.4,48.7,30.12,WSW,248,1.6,1.6,29,0.00,,---,0.00,VWS V14.01,2013-07-03 17:56:00,
2013-07-03 11:02:00,84.2,45.6,30.12,SSE,158,0.0,3.4,26,0.00,,---,0.00,VWS V14.01,2013-07-03 18:02:00,
2013-07-03 11:07:00,84.6,44.9,30.12,WSW,248,1.6,1.6,25,0.00,,---,0.00,VWS V14.01,2013-07-03 18:07:00,
2013-07-03 11:12:00,83.1,43.7,30.15,SW,225,1.1,3.6,25,0.00,,---,0.00,VWS V14.01,2013-07-03 18:12:00,
2013-07-03 11:17:00,83.8,44.3,30.15,SSE,158,0.0,3.6,25,0.00,,---,0.00,VWS V14.01,2013-07-03 18:17:00,
2013-07-03 11:22:00,85.5,45.7,30.15,SW,225,0.0,2.2,25,0.00,,---,0.00,VWS V14.01,2013-07-03 18:22:00,
2013-07-03 11:27:00,85.5,45.7,30.15,West,270,3.1,3.4,25,0.00,,---,0.00,VWS V14.01,2013-07-03 18:27:00,
2013-07-03 11:33:00,84.0,44.5,30.15,SSE,158,0.9,4.3,25,0.00,,---,0.00,VWS V14.01,2013-07-03 18:33:00,
2013-07-03 11:38:00,85.6,48.8,30.15,West,270,1.3,1.3,28,0.00,,---,0.00,VWS V14.01,2013-07-03 18:38:00,
2013-07-03 11:43:00,86.2,49.3,30.15,SSW,202,0.0,0.0,28,0.00,,---,0.00,VWS V14.01,2013-07-03 18:43:00,
2013-07-03 11:48:00,86.2,44.1,30.15,West,270,6.0,6.0,23,0.00,,---,0.00,VWS V14.01,2013-07-03 18:48:00,
2013-07-03 11:53:00,85.8,46.0,30.12,SW,225,1.3,1.3,25,0.00,,---,0.00,VWS V14.01,2013-07-03 18:53:00,
2013-07-03 11:58:00,86.7,46.7,30.12,West,270,0.0,2.9,25,0.00,,---,0.00,VWS V14.01,2013-07-03 18:58:00,
2013-07-03 12:03:00,86.4,49.4,30.12,WSW,248,2.7,2.7,28,0.00,,---,0.00,VWS V14.01,2013-07-03 19:03:00,
2013-07-03 12:09:00,86.2,47.3,30.15,WSW,248,1.6,2.9,26,0.00,,---,0.00,VWS V14.01,2013-07-03 19:09:00,
2013-07-03 12:14:00,86.5,47.6,30.15,ESE,112,0.9,1.3,26,0.00,,---,0.00,VWS V14.01,2013-07-03 19:14:00,
2013-07-03 12:19:00,86.9,47.9,30.15,West,270,2.9,2.9,26,0.00,,---,0.00,VWS V14.01,2013-07-03 19:19:00,
2013-07-03 12:25:00,86.2,47.3,30.15,WSW,248,1.6,1.6,26,0.00,,---,0.00,VWS V14.01,2013-07-03 19:25:00,
2013-07-03 12:30:00,84.7,45.1,30.15,WSW,248,4.3,4.3,25,0.00,,---,0.00,VWS V14.01,2013-07-03 19:30:00,
2013-07-03 12:35:00,85.5,48.7,30.15,South,180,0.0,1.1,28,0.00,,---,0.00,VWS V14.01,2013-07-03 19:35:00,
2013-07-03 12:40:00,87.1,49.1,30.15,West,270,3.6,3.6,27,0.00,,---,0.00,VWS V14.01,2013-07-03 19:40:00,
2013-07-03 12:45:00,87.1,48.1,30.15,SE,135,0.0,2.0,26,0.00,,---,0.00,VWS V14.01,2013-07-03 19:45:00,
2013-07-03 12:50:00,85.6,44.7,30.15,WSW,248,0.0,2.7,24,0.00,,---,0.00,VWS V14.01,2013-07-03 19:50:00,
2013-07-03 12:55:00,86.5,46.6,30.15,WSW,248,4.7,4.9,25,0.00,,---,0.00,VWS V14.01,2013-07-03 19:55:00,
2013-07-03 13:00:00,86.5,45.5,30.15,SW,225,1.3,2.7,24,0.00,,---,0.00,VWS V14.01,2013-07-03 20:00:00,
2013-07-03 13:06:00,87.3,50.2,30.15,South,180,0.0,0.0,28,0.00,,---,0.00,VWS V14.01,2013-07-03 20:06:00,
2013-07-03 13:11:00,87.1,46.0,30.15,WSW,248,2.9,4.0,24,0.00,,---,0.00,VWS V14.01,2013-07-03 20:11:00,
2013-07-03 13:16:00,87.1,48.1,30.15,SSE,158,0.0,0.0,26,0.00,,---,0.00,VWS V14.01,2013-07-03 20:16:00,
2013-07-03 13:21:00,88.0,47.8,30.15,SSE,158,2.0,3.6,25,0.00,,---,0.00,VWS V14.01,2013-07-03 20:21:00,
2013-07-03 13:26:00,87.1,47.0,30.15,West,270,0.9,2.0,25,0.00,,---,0.00,VWS V14.01,2013-07-03 20:26:00,
2013-07-03 13:31:00,86.9,44.7,30.15,West,270,0.0,3.1,23,0.00,,---,0.00,VWS V14.01,2013-07-03 20:31:00,
2013-07-03 13:36:00,85.6,45.8,30.15,ESE,112,0.0,2.7,25,0.00,,---,0.00,VWS V14.01,2013-07-03 20:36:00,
2013-07-03 13:41:00,86.5,48.6,30.12,SW,225,0.0,2.0,27,0.00,,---,0.00,VWS V14.01,2013-07-03 20:41:00,
2013-07-03 13:46:00,86.0,45.0,30.12,SW,225,2.7,4.7,24,0.00,,---,0.00,VWS V14.01,2013-07-03 20:46:00,
2013-07-03 13:51:00,85.1,48.4,30.12,WSW,248,1.3,2.9,28,0.00,,---,0.00,VWS V14.01,2013-07-03 20:51:00,
2013-07-03 13:56:00,85.5,48.7,30.12,WSW,248,0.0,1.1,28,0.00,,---,0.00,VWS V14.01,2013-07-03 20:56:00,
2013-07-03 14:01:00,86.2,48.3,30.12,WSW,248,1.3,2.7,27,0.00,,---,0.00,VWS V14.01,2013-07-03 21:01:00,
2013-07-03 14:07:00,85.1,48.4,30.12,SW,225,4.0,4.0,28,0.00,,---,0.00,VWS V14.01,2013-07-03 21:07:00,
2013-07-03 14:12:00,85.5,48.7,30.12,SW,225,1.1,1.1,28,0.00,,---,0.00,VWS V14.01,2013-07-03 21:12:00,
2013-07-03 14:17:00,84.9,49.2,30.12,WSW,248,2.9,3.1,29,0.00,,---,0.00,VWS V14.01,2013-07-03 21:17:00,
2013-07-03 14:22:00,85.3,49.5,30.12,ENE,68,1.3,3.4,29,0.00,,---,0.00,VWS V14.01,2013-07-03 21:22:00,
2013-07-03 14:27:00,85.5,49.6,30.09,SSW,202,2.0,2.9,29,0.00,,---,0.00,VWS V14.01,2013-07-03 21:27:00,
2013-07-03 14:32:00,85.1,49.3,30.09,WSW,248,2.9,2.9,29,0.00,,---,0.00,VWS V14.01,2013-07-03 21:32:00,
2013-07-03 14:37:00,85.1,49.3,30.09,WSW,248,2.0,3.1,29,0.00,,---,0.00,VWS V14.01,2013-07-03 21:37:00,
2013-07-03 14:42:00,84.9,48.2,30.09,SE,135,2.5,4.0,28,0.00,,---,0.00,VWS V14.01,2013-07-03 21:42:00,
2013-07-03 14:47:00,84.7,49.0,30.09,NNE,22,0.0,2.0,29,0.00,,---,0.00,VWS V14.01,2013-07-03 21:47:00,
2013-07-03 14:52:00,83.7,48.1,30.06,WSW,248,0.0,4.3,29,0.00,,---,0.00,VWS V14.01,2013-07-03 21:52:00,
2013-07-03 14:57:00,83.7,49.0,30.06,NW,315,1.3,2.5,30,0.00,,---,0.00,VWS V14.01,2013-07-03 21:57:00,
2013-07-03 15:02:00,83.5,47.9,30.06,WSW,248,1.3,4.9,29,0.00,,---,0.00,VWS V14.01,2013-07-03 22:02:00,
2013-07-03 15:08:00,84.6,49.8,30.09,West,270,3.1,3.1,30,0.00,,---,0.00,VWS V14.01,2013-07-03 22:08:00,
2013-07-03 15:13:00,84.0,49.3,30.09,WSW,248,0.0,0.0,30,0.00,,---,0.00,VWS V14.01,2013-07-03 22:13:00,
2013-07-03 15:18:00,84.4,48.7,30.09,SW,225,2.5,2.9,29,0.00,,---,0.00,VWS V14.01,2013-07-03 22:18:00,
2013-07-03 15:23:00,84.0,49.3,30.09,WSW,248,0.9,2.0,30,0.00,,---,0.00,VWS V14.01,2013-07-03 22:23:00,
2013-07-03 15:28:00,84.2,48.5,30.09,WSW,248,2.0,2.0,29,0.00,,---,0.00,VWS V14.01,2013-07-03 22:28:00,
2013-07-03 15:33:00,83.7,48.1,30.09,SW,225,3.8,5.8,29,0.00,,---,0.00,VWS V14.01,2013-07-03 22:33:00,
2013-07-03 15:40:00,84.4,48.7,30.09,West,270,1.1,1.1,29,0.00,,---,0.00,VWS V14.01,2013-07-03 22:40:00,
2013-07-03 15:45:00,84.9,49.2,30.09,WSW,248,0.0,2.9,29,0.00,,---,0.00,VWS V14.01,2013-07-03 22:45:00,
2013-07-03 15:50:00,85.5,49.6,30.09,WSW,248,0.0,0.0,29,0.00,,---,0.00,VWS V14.01,2013-07-03 22:50:00,
2013-07-03 15:55:00,85.1,49.3,30.09,West,270,2.0,3.6,29,0.00,,---,0.00,VWS V14.01,2013-07-03 22:55:00,
2013-07-03 16:00:00,84.7,49.0,30.09,WSW,248,0.9,0.9,29,0.00,,---,0.00,VWS V14.01,2013-07-03 23:00:00,
2013-07-03 16:05:00,84.7,49.0,30.09,West,270,1.1,1.1,29,0.00,,---,0.00,VWS V14.01,2013-07-03 23:05:00,
2013-07-03 16:10:00,84.6,47.9,30.09,West,270,0.0,3.8,28,0.00,,---,0.00,VWS V14.01,2013-07-03 23:10:00,
2013-07-03 16:16:00,84.4,47.8,30.09,WSW,248,2.5,2.9,28,0.00,,---,0.00,VWS V14.01,2013-07-03 23:16:00,
2013-07-03 16:21:00,83.8,46.3,30.09,WSW,248,2.2,4.7,27,0.00,,---,0.00,VWS V14.01,2013-07-03 23:21:00,
2013-07-03 16:26:00,83.8,48.2,30.06,WSW,248,0.9,2.2,29,0.00,,---,0.00,VWS V14.01,2013-07-03 23:26:00,
2013-07-03 16:32:00,82.9,47.5,30.06,WSW,248,0.9,1.1,29,0.00,,---,0.00,VWS V14.01,2013-07-03 23:32:00,
2013-07-03 16:37:00,83.7,48.1,30.09,SSE,158,0.0,0.9,29,0.00,,---,0.00,VWS V14.01,2013-07-03 23:37:00,
2013-07-03 16:42:00,83.8,49.1,30.09,SSW,202,0.0,1.6,30,0.00,,---,0.00,VWS V14.01,2013-07-03 23:42:00,
2013-07-03 16:47:00,84.0,48.4,30.09,WSW,248,2.9,2.9,29,0.00,,---,0.00,VWS V14.01,2013-07-03 23:47:00,
2013-07-03 16:52:00,83.5,47.0,30.06,WSW,248,2.7,2.7,28,0.00,,---,0.00,VWS V14.01,2013-07-03 23:52:00,
2013-07-03 16:57:00,83.1,47.6,30.06,West,270,0.9,2.9,29,0.00,,---,0.00,VWS V14.01,2013-07-03 23:57:00,
2013-07-03 17:02:00,82.9,46.5,30.06,WSW,248,2.2,2.2,28,0.00,,---,0.00,VWS V14.01,2013-07-04 00:02:00,
2013-07-03 17:08:00,83.1,47.6,30.06,SW,225,0.0,0.0,29,0.00,,---,0.00,VWS V14.01,2013-07-04 00:08:00,
2013-07-03 17:13:00,82.9,47.5,30.06,WSW,248,1.3,3.1,29,0.00,,---,0.00,VWS V14.01,2013-07-04 00:13:00,
2013-07-03 17:18:00,82.2,44.9,30.06,WSW,248,1.6,2.5,27,0.00,,---,0.00,VWS V14.01,2013-07-04 00:18:00,
2013-07-03 17:23:00,81.9,45.6,30.06,West,270,2.7,2.7,28,0.00,,---,0.00,VWS V14.01,2013-07-04 00:23:00,
2013-07-03 17:28:00,81.7,44.5,30.06,SW,225,2.7,2.7,27,0.00,,---,0.00,VWS V14.01,2013-07-04 00:28:00,
2013-07-03 17:33:00,80.4,43.4,30.06,SW,225,2.0,2.7,27,0.00,,---,0.00,VWS V14.01,2013-07-04 00:33:00,
2013-07-03 17:38:00,79.0,42.2,30.06,WSW,248,0.0,2.0,27,0.00,,---,0.00,VWS V14.01,2013-07-04 00:38:00,
2013-07-03 17:43:00,77.9,43.1,30.06,WSW,248,2.5,2.7,29,0.00,,---,0.00,VWS V14.01,2013-07-04 00:43:00,
2013-07-03 17:48:00,76.8,43.9,30.06,WSW,248,1.3,1.3,31,0.00,,---,0.00,VWS V14.01,2013-07-04 00:48:00,
2013-07-03 17:53:00,75.6,42.8,30.06,WSW,248,3.8,3.8,31,0.00,,---,0.00,VWS V14.01,2013-07-04 00:53:00,
2013-07-03 17:58:00,74.7,42.9,30.06,West,270,3.1,3.1,32,0.00,,---,0.00,VWS V14.01,2013-07-04 00:58:00,
2013-07-03 18:03:00,74.5,42.7,30.06,SW,225,1.3,3.8,32,0.00,,---,0.00,VWS V14.01,2013-07-04 01:03:00,
2013-07-03 18:08:00,74.1,42.4,30.03,ENE,68,2.7,3.4,32,0.00,,---,0.00,VWS V14.01,2013-07-04 01:08:00,
2013-07-03 18:13:00,73.9,42.2,30.03,WSW,248,2.7,2.7,32,0.00,,---,0.00,VWS V14.01,2013-07-04 01:13:00,
2013-07-03 18:18:00,73.6,41.9,30.03,West,270,4.0,4.0,32,0.00,,---,0.00,VWS V14.01,2013-07-04 01:18:00,
2013-07-03 18:23:00,73.4,41.8,30.06,WSW,248,0.9,0.9,32,0.00,,---,0.00,VWS V14.01,2013-07-04 01:23:00,
2013-07-03 18:28:00,72.9,42.1,30.06,WSW,248,2.7,3.8,33,0.00,,---,0.00,VWS V14.01,2013-07-04 01:28:00,
2013-07-03 18:34:00,72.0,41.3,30.06,WSW,248,3.4,3.4,33,0.00,,---,0.00,VWS V14.01,2013-07-04 01:34:00,
2013-07-03 18:39:00,71.4,41.6,30.06,West,270,1.1,2.5,34,0.00,,---,0.00,VWS V14.01,2013-07-04 01:39:00,
2013-07-03 18:44:00,70.9,41.9,30.06,WSW,248,2.9,2.9,35,0.00,,---,0.00,VWS V14.01,2013-07-04 01:44:00,
2013-07-03 18:49:00,70.3,42.9,30.06,West,270,2.7,2.7,37,0.00,,---,0.00,VWS V14.01,2013-07-04 01:49:00,
2013-07-03 18:54:00,69.8,43.1,30.09,SW,225,0.0,2.0,38,0.00,,---,0.00,VWS V14.01,2013-07-04 01:54:00,
2013-07-03 18:59:00,69.3,44.6,30.09,SW,225,0.0,0.0,41,0.00,,---,0.00,VWS V14.01,2013-07-04 01:59:00,
2013-07-03 19:04:00,68.9,44.2,30.09,WSW,248,3.4,3.6,41,0.00,,---,0.00,VWS V14.01,2013-07-04 02:04:00,
2013-07-03 19:09:00,68.4,43.1,30.09,WSW,248,0.0,1.3,40,0.00,,---,0.00,VWS V14.01,2013-07-04 02:09:00,
2013-07-03 19:14:00,67.8,43.3,30.09,WSW,248,0.9,0.9,41,0.00,,---,0.00,VWS V14.01,2013-07-04 02:14:00,
2013-07-03 19:20:00,67.5,44.2,30.09,SW,225,1.1,1.6,43,0.00,,---,0.00,VWS V14.01,2013-07-04 02:20:00,
2013-07-03 19:25:00,67.1,43.9,30.09,West,270,2.2,2.5,43,0.00,,---,0.00,VWS V14.01,2013-07-04 02:25:00,
2013-07-03 19:30:00,66.7,44.2,30.09,South,180,4.0,4.0,44,0.00,,---,0.00,VWS V14.01,2013-07-04 02:30:00,
2013-07-03 19:35:00,66.6,44.0,30.09,South,180,0.0,0.0,44,0.00,,---,0.00,VWS V14.01,2013-07-04 02:35:00,
2013-07-03 19:40:00,66.2,44.2,30.09,WSW,248,1.3,1.3,45,0.00,,---,0.00,VWS V14.01,2013-07-04 02:40:00,
2013-07-03 19:45:00,65.7,44.9,30.09,West,270,3.4,3.8,47,0.00,,---,0.00,VWS V14.01,2013-07-04 02:45:00,
2013-07-03 19:50:00,65.3,44.0,30.09,WNW,292,2.0,2.9,46,0.00,,---,0.00,VWS V14.01,2013-07-04 02:50:00,
2013-07-03 19:55:00,64.9,43.7,30.06,WNW,292,3.1,3.1,46,0.00,,---,0.00,VWS V14.01,2013-07-04 02:55:00,
2013-07-03 20:01:00,64.6,43.4,30.06,SW,225,0.0,0.0,46,0.00,,---,0.00,VWS V14.01,2013-07-04 03:01:00,
2013-07-03 20:06:00,64.2,45.2,30.06,West,270,3.8,3.8,50,0.00,,---,0.00,VWS V14.01,2013-07-04 03:06:00,
2013-07-03 20:11:00,63.9,44.3,30.09,WSW,248,0.9,0.9,49,0.00,,---,0.00,VWS V14.01,2013-07-04 03:11:00,
2013-07-03 20:16:00,63.5,46.1,30.09,WSW,248,2.7,3.1,53,0.00,,---,0.00,VWS V14.01,2013-07-04 03:16:00,
2013-07-03 20:21:00,63.1,44.7,30.09,SW,225,2.5,2.5,51,0.00,,---,0.00,VWS V14.01,2013-07-04 03:21:00,
2013-07-03 20:26:00,62.8,44.9,30.09,WNW,292,0.0,2.0,52,0.00,,---,0.00,VWS V14.01,2013-07-04 03:26:00,
2013-07-03 20:31:00,62.2,45.4,30.09,SSE,158,0.0,2.5,54,0.00,,---,0.00,VWS V14.01,2013-07-04 03:31:00,
2013-07-03 20:37:00,62.1,44.8,30.09,SW,225,0.0,0.0,53,0.00,,---,0.00,VWS V14.01,2013-07-04 03:37:00,
2013-07-03 20:42:00,61.5,44.2,30.12,NE,45,0.0,0.0,53,0.00,,---,0.00,VWS V14.01,2013-07-04 03:42:00,
2013-07-03 20:47:00,61.3,45.5,30.12,WSW,248,3.1,3.1,56,0.00,,---,0.00,VWS V14.01,2013-07-04 03:47:00,
2013-07-03 20:52:00,61.0,45.2,30.12,SSW,202,0.0,0.0,56,0.00,,---,0.00,VWS V14.01,2013-07-04 03:52:00,
2013-07-03 20:58:00,60.6,45.8,30.12,SW,225,0.0,0.0,58,0.00,,---,0.00,VWS V14.01,2013-07-04 03:58:00,
2013-07-03 21:01:00,60.4,46.9,30.12,WSW,248,0.0,1.1,61,0.00,,---,0.00,VWS V14.01,2013-07-04 04:01:00,
2013-07-03 21:02:00,60.3,48.0,30.12,West,270,3.6,4.0,64,0.00,,---,0.00,VWS V14.01,2013-07-04 04:02:00,
2013-07-03 21:03:00,60.3,48.0,30.12,WSW,248,1.6,3.6,64,0.00,,---,0.00,VWS V14.01,2013-07-04 04:03:00,
2013-07-03 21:08:00,60.1,47.5,30.12,West,270,1.1,1.3,63,0.00,,---,0.00,VWS V14.01,2013-07-04 04:08:00,
2013-07-03 21:13:00,59.5,46.5,30.12,WSW,248,0.0,0.0,62,0.00,,---,0.00,VWS V14.01,2013-07-04 04:13:00,
2013-07-03 21:18:00,59.2,46.2,30.12,SW,225,0.0,0.0,62,0.00,,---,0.00,VWS V14.01,2013-07-04 04:18:00,
2013-07-03 21:23:00,58.8,47.5,30.12,SSW,202,0.0,0.0,66,0.00,,---,0.00,VWS V14.01,2013-07-04 04:23:00,
2013-07-03 21:28:00,58.5,46.8,30.12,WSW,248,0.0,0.0,65,0.00,,---,0.00,VWS V14.01,2013-07-04 04:28:00,
2013-07-03 21:33:00,58.3,47.0,30.12,WSW,248,0.0,0.0,66,0.00,,---,0.00,VWS V14.01,2013-07-04 04:33:00,
2013-07-03 21:38:00,57.9,47.0,30.12,SW,225,0.0,0.0,67,0.00,,---,0.00,VWS V14.01,2013-07-04 04:38:00,
2013-07-03 21:43:00,57.6,46.7,30.12,SW,225,0.0,0.0,67,0.00,,---,0.00,VWS V14.01,2013-07-04 04:43:00,
2013-07-03 21:48:00,57.4,47.3,30.12,South,180,0.0,0.0,69,0.00,,---,0.00,VWS V14.01,2013-07-04 04:48:00,
2013-07-03 21:53:00,57.0,47.0,30.15,WSW,248,0.0,0.0,69,0.00,,---,0.00,VWS V14.01,2013-07-04 04:53:00,
2013-07-03 21:58:00,56.8,47.5,30.15,WSW,248,0.0,0.0,71,0.00,,---,0.00,VWS V14.01,2013-07-04 04:58:00,
2013-07-03 22:03:00,56.8,47.9,30.15,WSW,248,0.0,2.0,72,0.00,,---,0.00,VWS V14.01,2013-07-04 05:03:00,
2013-07-03 22:08:00,56.7,47.8,30.15,West,270,0.0,2.0,72,0.00,,---,0.00,VWS V14.01,2013-07-04 05:08:00,
2013-07-03 22:13:00,56.5,47.6,30.15,West,270,0.0,0.0,72,0.00,,---,0.00,VWS V14.01,2013-07-04 05:13:00,
2013-07-03 22:18:00,56.3,47.4,30.15,West,270,0.0,0.0,72,0.00,,---,0.00,VWS V14.01,2013-07-04 05:18:00,
2013-07-03 22:23:00,55.9,47.1,30.15,WSW,248,0.0,0.0,72,0.00,,---,0.00,VWS V14.01,2013-07-04 05:23:00,
2013-07-03 22:29:00,55.9,47.8,30.15,West,270,0.0,0.0,74,0.00,,---,0.00,VWS V14.01,2013-07-04 05:29:00,
2013-07-03 22:34:00,55.8,47.6,30.15,SW,225,0.0,0.0,74,0.00,,---,0.00,VWS V14.01,2013-07-04 05:34:00,
2013-07-03 22:39:00,55.6,47.8,30.15,SW,225,0.0,0.0,75,0.00,,---,0.00,VWS V14.01,2013-07-04 05:39:00,
2013-07-03 22:44:00,55.2,47.5,30.15,SW,225,0.0,0.0,75,0.00,,---,0.00,VWS V14.01,2013-07-04 05:44:00,
2013-07-03 22:49:00,55.0,47.3,30.15,SW,225,0.0,0.0,75,0.00,,---,0.00,VWS V14.01,2013-07-04 05:49:00,
2013-07-03 22:54:00,54.7,46.9,30.15,SW,225,0.0,0.0,75,0.00,,---,0.00,VWS V14.01,2013-07-04 05:54:00,
2013-07-03 22:59:00,54.5,46.8,30.15,SW,225,0.0,0.0,75,0.00,,---,0.00,VWS V14.01,2013-07-04 05:59:00,
2013-07-03 23:04:00,54.1,46.8,30.15,SW,225,0.0,0.0,76,0.00,,---,0.00,VWS V14.01,2013-07-04 06:04:00,
2013-07-03 23:09:00,54.0,46.6,30.15,SW,225,0.0,0.0,76,0.00,,---,0.00,VWS V14.01,2013-07-04 06:09:00,
2013-07-03 23:14:00,53.8,46.4,30.15,SW,225,0.0,0.0,76,0.00,,---,0.00,VWS V14.01,2013-07-04 06:14:00,
2013-07-03 23:19:00,53.4,46.7,30.15,SW,225,0.0,0.0,78,0.00,,---,0.00,VWS V14.01,2013-07-04 06:19:00,
2013-07-03 23:24:00,53.2,46.2,30.12,SW,225,0.0,0.0,77,0.00,,---,0.00,VWS V14.01,2013-07-04 06:24:00,
2013-07-03 23:29:00,53.1,46.4,30.12,SW,225,0.0,0.0,78,0.00,,---,0.00,VWS V14.01,2013-07-04 06:29:00,
2013-07-03 23:34:00,52.9,46.5,30.12,SW,225,0.0,0.0,79,0.00,,---,0.00,VWS V14.01,2013-07-04 06:34:00,
2013-07-03 23:39:00,52.7,46.7,30.12,SW,225,0.0,0.0,80,0.00,,---,0.00,VWS V14.01,2013-07-04 06:39:00,
2013-07-03 23:44:00,52.5,46.5,30.12,SW,225,0.0,0.0,80,0.00,,---,0.00,VWS V14.01,2013-07-04 06:44:00,
2013-07-03 23:49:00,52.3,46.4,30.12,SW,225,0.0,0.0,80,0.00,,---,0.00,VWS V14.01,2013-07-04 06:49:00,
2013-07-03 23:54:00,52.2,46.5,30.15,SW,225,0.0,0.0,81,0.00,,---,0.00,VWS V14.01,2013-07-04 06:54:00,
2013-07-03 23:59:00,52.0,46.3,30.15,SW,225,0.0,0.0,81,0.00,,---,0.00,VWS V14.01,2013-07-04 06:59:00,